Content
SEND FEEDBACK

Daily
Averages
Monthly
Summary
United Kingdom

FINCHINGFIELD, ENGLAND


Home > Europe > United Kingdom > England
Elevation: 331 feet     Latitude: 51 58N     Longitude: 000 30E

WEATHER
 
SELECT A DAY
Number of Records: 296,799;   Date Range: 7/1/96 - 8/25/14
 
SHARE

PRINT THIS DATA

[ ← Previous Day ]
WEATHER ALMANAC - DECEMBER 7, 2013
[ Next Day → ]
[ °C ]   °F
Weather ElementAverageHighLow
Temperature42.4 °F48.2 °F (12:20 pm)37.4 °F (6:50 am)
Dewpoint39 °F41 °F (10:50 am)35.6 °F (6:50 am)
Humidity88 %100 % (8:20 pm)71 % (1:20 pm)
Barometer30.27 in30.33 in (12:50 am)30.24 in (2:50 pm)
Wind Speed7.7 mph11.5 mph (12:50 pm)
Weather ElementAverage
Visibility5.3 mi
Wind DirectionWSW (241.5 °)

Weather ElementTotal
Precipitation---
Heating Degree Days22.2 (Base 65)
Averaged from 47 records on December 7, 2013
WEATHER CONDITIONS BREAKOUT
WIND DIRECTION BREAKOUT
WEATHER BY HOUR - DECEMBER 7, 2013
[ °C ]   °F
Local TimeTemperatureDewpointHumidityBarometerVisibilityWind DirectionWind SpeedGust SpeedPrecipitationEventsConditions
12:50 AM42.8 °F39.2 °F87 %30.33 in6.2 miWSW (240°)5.8 mphOvercast
1:20 AM42.8 °F39.2 °F87 %30.33 in4.3 miWSW (250°)5.8 mphRainRain
1:50 AM41.0 °F39.2 °F93 %30.33 in4.3 miSW (230°)5.8 mphMostly Cloudy
2:20 AM41.0 °F39.2 °F93 %30.30 in3.1 miSW (230°)6.9 mphHaze
2:50 AM41.0 °F39.2 °F93 %30.30 in5.0 miWSW (250°)5.8 mphOvercast
3:20 AM41.0 °F39.2 °F93 %30.30 in6.2 miWSW (250°)4.6 mphOvercast
3:50 AM42.8 °F39.2 °F87 %30.30 in5.6 miWest (260°)5.8 mphMostly Cloudy
4:20 AM42.8 °F39.2 °F87 %30.30 in6.2 miWest (260°)6.9 mphMostly Cloudy
4:50 AM42.8 °F39.2 °F87 %30.30 in6.2 miWSW (250°)5.8 mphPartly Cloudy
5:20 AM42.8 °F39.2 °F87 %30.30 in5.6 miWSW (240°)4.6 mphScattered Clouds
5:50 AM39.2 °F37.4 °F93 %30.30 in6.2 miSW (230°)4.6 mphMostly Cloudy
6:20 AM39.2 °F37.4 °F93 %30.30 in3.7 miWSW (240°)4.6 mphPartly Cloudy
6:50 AM37.4 °F35.6 °F93 %30.30 in5.0 miSW (230°)6.9 mph
7:20 AM37.4 °F35.6 °F93 %30.27 in5.0 miWSW (240°)6.9 mph
7:50 AM41.0 °F39.2 °F93 %30.27 in5.0 miWSW (240°)6.9 mphMostly Cloudy
8:20 AM41.0 °F39.2 °F93 %30.30 in5.6 miWSW (240°)5.8 mphMostly Cloudy
8:50 AM42.8 °F39.2 °F87 %30.30 in6.2 miWSW (240°)5.8 mphMostly Cloudy
9:20 AM42.8 °F39.2 °F87 %30.30 in6.2 miWSW (250°)8.1 mphMostly Cloudy
9:50 AM44.6 °F39.2 °F81 %30.30 in6.2 miWSW (250°)8.1 mphMostly Cloudy
10:20 AM44.6 °F39.2 °F81 %30.30 in6.2 miWSW (250°)6.9 mphMostly Cloudy
10:50 AM44.6 °F41.0 °F87 %30.30 in6.2 miWSW (240°)6.9 mphMostly Cloudy
11:20 AM46.4 °F41.0 °F81 %30.30 in6.2 miWSW (250°)9.2 mphMostly Cloudy
11:50 AM46.4 °F41.0 °F81 %30.30 in6.2 miWSW (240°)9.2 mphScattered Clouds
12:20 PM48.2 °F41.0 °F76 %30.27 in6.2 miWest (260°)10.4 mphScattered Clouds
12:50 PM48.2 °F41.0 °F76 %30.27 in6.2 miWSW (250°)11.5 mphMostly Cloudy
1:20 PM48.2 °F39.2 °F71 %30.27 in6.2 miWest (260°)10.4 mphMostly Cloudy
1:50 PM46.4 °F41.0 °F81 %30.27 in6.2 miWSW (250°)9.2 mphMostly Cloudy
2:20 PM46.4 °F41.0 °F81 %30.27 in6.2 miWSW (250°)8.1 mphMostly Cloudy
2:50 PM48.2 °F39.2 °F71 %30.24 in6.2 miWest (260°)11.5 mphScattered Clouds
3:20 PM46.4 °F39.2 °F76 %30.24 in6.2 miWest (270°)10.4 mphPartly Cloudy
3:50 PM44.6 °F37.4 °F76 %30.24 inWSW (240°)8.1 mphClear
4:20 PM42.8 °F39.2 °F87 %30.24 in6.2 miSW (230°)9.2 mphPartly Cloudy
4:50 PM39.2 °F37.4 °F93 %30.24 inSW (230°)6.9 mphClear
5:20 PM39.2 °F37.4 °F93 %30.24 inSW (230°)8.1 mphClear
5:50 PM37.4 °F35.6 °F93 %30.24 in5.0 miSW (230°)8.1 mph
6:20 PM37.4 °F35.6 °F93 %30.24 in4.3 miSW (220°)8.1 mph
6:50 PM37.4 °F35.6 °F93 %30.24 in4.3 miWSW (240°)8.1 mphPartly Cloudy
7:20 PM39.2 °F37.4 °F93 %30.24 in3.1 miSW (220°)6.9 mphHaze
7:50 PM39.2 °F37.4 °F93 %30.24 in2.5 miSW (230°)8.1 mphHaze
8:20 PM39.2 °F39.2 °F100 %30.24 in3.1 miSW (230°)6.9 mphHaze
8:50 PM39.2 °F39.2 °F100 %30.27 in3.1 miSW (230°)8.1 mphHaze
9:20 PM41.0 °F41.0 °F100 %30.27 in3.7 miSW (230°)6.9 mphMostly Cloudy
9:50 PM42.8 °F41.0 °F93 %30.24 in5.0 miWSW (240°)10.4 mphMostly Cloudy
10:20 PM42.8 °F41.0 °F93 %30.24 in5.0 miWSW (240°)10.4 mphPartly Cloudy
10:50 PM44.6 °F41.0 °F87 %30.24 in6.2 miWSW (240°)10.4 mphMostly Cloudy
11:20 PM42.8 °F41.0 °F93 %30.24 in6.2 miWSW (240°)10.4 mphPartly Cloudy
11:50 PM42.8 °F39.2 °F87 %30.24 in3.7 miSW (230°)9.2 mphScattered Clouds
Hourly data recorded from EGSS, located miles away from Finchingfield, England







STORIES FROM OUR PARTNERS